PDT,Max TemperatureF,Mean TemperatureF,Min TemperatureF,Max Dew PointF,MeanDew PointF,Min DewpointF,Max Humidity, Mean Humidity, Min Humidity, Max Sea Level PressureIn, Mean Sea Level PressureIn, Min Sea Level PressureIn, Max VisibilityMiles, Mean VisibilityMiles, Min VisibilityMiles, Max Wind SpeedMPH, Mean Wind SpeedMPH, Max Gust SpeedMPH,PrecipitationIn, CloudCover, Events, WindDirDegrees
2013-3-1,66,54,42,48,43,37,82,62,45,30.42,30.35,30.28,10,10,10,9,3,,0.00,0,,152
2013-3-2,69,62,55,48,43,37,72,54,35,30.27,30.17,30.09,10,10,10,13,5,,0.00,0,,127
2013-3-3,60,55,50,50,47,45,88,74,59,30.09,30.05,30.02,10,10,5,13,5,,0.00,4,,128
2013-3-4,62,53,44,48,44,39,93,74,55,30.11,30.06,30.02,10,10,10,10,6,,0.00,0,,136
2013-3-5,57,52,46,46,40,34,93,70,44,30.02,29.94,29.84,10,10,7,13,6,16,0.00,5,,172
2013-3-6,50,44,37,43,40,36,100,82,58,30.05,29.97,29.84,10,8,2,18,11,29,0.52,5,,185
2013-3-7,53,45,37,39,37,34,93,75,54,29.98,29.92,29.85,10,10,10,10,3,,0.00,3,,121
2013-3-8,57,47,37,43,37,34,87,68,44,29.99,29.85,29.79,10,10,10,16,5,23,0.00,1,,140
2013-3-9,62,48,35,41,35,27,100,62,32,30.29,30.20,30.01,10,10,10,14,4,18,0.00,1,,307
2013-3-10,60,48,37,43,36,21,87,59,30,30.34,30.29,30.26,10,10,10,9,4,,0.00,0,,171
2013-3-11,66,54,42,45,42,37,87,67,45,30.27,30.20,30.12,10,10,10,9,4,,0.00,0,,137
2013-3-12,69,58,48,48,46,41,82,63,46,30.17,30.13,30.10,10,10,10,9,5,,0.00,0,,117
2013-3-13,73,60,48,52,47,43,87,57,36,30.19,30.15,30.12,10,10,10,10,3,,0.00,0,,113
2013-3-14,73,64,55,52,45,37,72,49,35,30.17,30.13,30.10,10,10,10,12,5,,0.00,0,,122
2013-3-15,73,60,48,52,46,39,87,61,38,30.12,30.08,30.04,10,10,10,9,3,,0.00,0,,315
2013-3-16,71,60,48,50,41,36,82,57,27,30.07,30.04,30.01,10,10,10,12,3,,0.00,0,,113
2013-3-17,64,52,39,45,37,32,81,56,34,30.11,30.07,30.03,10,10,10,10,2,,0.00,0,,255
2013-3-18,64,55,46,45,38,32,72,52,34,30.10,30.06,30.03,10,10,1,8,4,,0.00,1,,108
2013-3-19,64,56,48,52,44,39,94,62,40,30.13,30.09,30.05,10,9,5,12,4,16,0.10,3,,139
2013-3-20,55,52,50,54,51,48,100,95,77,30.12,30.09,30.07,10,6,1,13,9,17,0.96,8,,152
2013-3-21,60,51,42,52,45,32,100,81,39,30.09,30.05,29.99,10,9,0,10,3,,0.00,4,,302
2013-3-22,59,46,32,41,30,23,93,56,29,30.05,30.03,29.99,10,10,10,14,4,23,0.00,0,,325
2013-3-23,62,47,32,36,31,23,81,50,30,30.11,30.07,30.03,10,10,10,10,2,,0.00,0,,241
2013-3-24,68,56,44,45,37,32,76,51,32,30.08,30.04,29.98,10,10,10,8,5,,0.00,0,,112
2013-3-25,66,57,48,45,41,37,71,54,40,30.00,29.96,29.91,10,10,10,14,8,,0.00,0,,145
2013-3-26,64,54,44,46,42,37,87,64,42,29.98,29.95,29.92,10,10,10,13,6,,0.00,2,,176
2013-3-27,66,58,50,52,46,41,77,67,55,30.02,29.96,29.93,10,10,10,12,7,18,0.00,4,,171
2013-3-28,64,56,48,52,48,43,100,74,48,30.11,30.06,30.02,10,10,8,8,3,,0.00,5,,129
2013-3-29,73,63,53,52,45,41,72,54,33,30.11,30.08,30.05,10,10,10,10,6,,0.00,0,,111
2013-3-30,73,64,55,52,47,45,72,57,46,30.06,30.03,29.99,10,10,10,9,5,,0.00,1,,153
2013-3-31,64,58,51,54,49,45,100,80,49,30.10,30.05,30.00,10,9,3,12,4,17,0.67,5,,176